Weather Roundup
Issued by NWS Chicago, IL

Home | Current Version | Previous Version | Graphics & Text | Print | Product List | Glossary On
Versions: 1 2 3 4 5 6 7 8 9 10 11 12 13 14 15 16 17 18 19 20 21 22 23 24 25 26 27 28 29 30 31 32 33 34 35 36 37 38 39 40 41 42 43 44 45 46 47 48 49 50
000
NZUS59 KLOT 211306
HRRLOT

CHICAGO AREA WEATHER ROUNDUP
NATIONAL WEATHER SERVICE CHICAGO/ROMEOVILLE IL
800 AM CDT MON APR 21 2014

NOTE: "FAIR" INDICATES FEW OR NO CLOUDS BELOW 12,000 FEET WITH NO
SIGNIFICANT WEATHER AND/OR OBSTRUCTIONS TO VISIBILITY.

* THESE STATIONS ARE NOT UNDER NWS QUALITY CONTROL. THEY ALSO MAY NOT
  REPORT WEATHER SUCH AS PRECIPITATION OR FOG.

ILZ005-006-012>014-019>023-211400-
NORTHEAST ILLINOIS

CITY           SKY/WX    TMP DP  RH WIND       PRES   REMARKS
OHARE          PTSUNNY   63  43  48 S7        29.94F
MIDWAY         PTSUNNY   62  43  49 S9        29.95F
AURORA         PTSUNNY   58  46  64 SE7       29.95F
LANSING*       PTSUNNY   61  43  51 S6        29.97F
JOLIET*        PTSUNNY   58  45  60 S3        29.96F
WAUKEGAN       CLOUDY    61  45  55 SW10      29.92F
DUPAGE AIRPORT PTSUNNY   59  46  62 S7        29.94F
WHEELING       CLOUDY    62  45  53 S7        29.94F
KANKAKEE*      PTSUNNY   60  45  58 S7        29.97F
MORRIS*        PTSUNNY   58  41  53 S6        29.95F
NORTHERLY IS     N/A     62  41  46 S6          N/A
$$

WIZ051-052-058>065-066-070>072-211400-
SOUTHEAST WISCONSIN

CITY           SKY/WX    TMP DP  RH WIND       PRES   REMARKS
MILWAUKEE      PTSUNNY   63  46  54 SW3       29.93R
KENOSHA*       PTSUNNY   63  45  51 SW9       29.92F
RACINE*        CLOUDY    63  45  51 SW9       29.93F
BURLINGTON     PTSUNNY   62  46  56 SW9       29.92F
WAUKESHA       SUNNY     57  52  82 W9        29.93F
$$

INZ001>003-010>013-019-020-211400-
NORTHWEST INDIANA

CITY           SKY/WX    TMP DP  RH WIND       PRES   REMARKS
GARY*          MOSUNNY   64  39  39 S12       29.97F
MICHIGAN CITY* NOT AVBL
RENSSELAER*    NOT AVBL
VALPARAISO     MOSUNNY   56  40  55 S6        29.99F
$$

LMZ740>746-211400-
SOUTHERN LAKE MICHIGAN

STATION/POSITION TIME  SKY/WX   TEMP WIND        PRES    VSBY
                                AIR  DIR/SP/G
                 (UTC)          (F)  (DEG/KT/KT) (MB)    (MI)
HARRISON CRIB    1300            59  180/ 15/ 16   N/A
BURNHAM HARBOR   1300            63  200/  5/ 10   N/A
CALUMET HARBOR   1300            61  190/  7/  9 1015.1F
BURNS HARBOR     NOT AVBL
MICHIGAN CITY    1300            62  160/ 11/ 17   N/A
$$

ABBREVIATIONS USED IN REMARKS
   TC - TEMPERATURE IN CELSIUS
  WCI - WIND CHILL INDEX
   HX - HEAT INDEX
  VSB - VISIBILITY
$$



USA.gov is the U.S. government's official web portal to all federal, state and local government web resources and services.